Terminal Aerodrome Forecast
Issued by NWS Sterling, VA

Current Version | Previous Version | Graphics & Text | Print | Product List | Glossary On
Versions: 1 2 3 4 5 6 7 8 9 10 11 12 13 14 15 16 17 18 19 20 21
000
FTUS41 KLWX 280837 AAB
TAFMRB
TAF AMD
KMRB 280837Z 2809/2906 34004KT P6SM OVC004
     FM280953 29007KT P6SM BKN040
     FM281600 26011G26KT P6SM BKN045
     FM282300 28014KT P6SM SCT250
     FM290300 28008KT P6SM SCT250=

USA.gov is the U.S. government's official web portal to all federal, state and local government web resources and services.